Location: Newark
(23.1300°N, 73.6109°E)
Time: 16:06:39
(UTC+00:00)

NOAA 18 - Pass Details

Date: 05 July 2020
Orbit: 839 x 862 km, 99.0° (Epoch: 05 August)

Event Time Altitude Azimuth Distance (km) Brightness Sun altitude
Exits shadow 15:43:22 43° 104° (ESE) 1,187 5.5 -22.0°
Maximum altitude 15:44:19 48° 74° (ENE) 1,117 5.5 -22.1°
Drops below altitude 10° 15:49:36 10° 1° (N) 2,493 8.1 -23.1°
Sets 15:52:03 0° 356° (N) 3,428 9.0 -23.5°
